This is the latest recevied weather packets stored in our database for station/object W0CHP-13. If no packets are shown the sender has not sent any weather packets the latest 10 day(s).
| Time | Temp. | Humidity | Pressure | Rain* | Wind** | Luminosity | Snow |
|---|---|---|---|---|---|---|---|
| 1777516218 | 8.89° C | 44% | 1015.1 hPa | 0 mm | - | 0 W/m² | - |
| 1777515616 | 9.44° C | 43% | 1015.1 hPa | 0 mm | - | 0 W/m² | - |
| 1777515018 | 9.44° C | 42% | 1014.9 hPa | 0 mm | - | 0 W/m² | - |
| 1777514416 | 10° C | 42% | 1014.8 hPa | 0 mm | - | 0 W/m² | - |
| 1777513819 | 10° C | 41% | 1014.8 hPa | 0 mm | - | 0 W/m² | - |
| 1777513217 | 10° C | 41% | 1014.8 hPa | 0 mm | - | 0 W/m² | - |
| 1777512615 | 10.56° C | 40% | 1014.8 hPa | 0 mm | - | 0 W/m² | - |
| 1777512017 | 10.56° C | 40% | 1014.5 hPa | 0 mm | - | 0 W/m² | - |
| 1777511415 | 10.56° C | 39% | 1014.5 hPa | 0 mm | - | 2 W/m² | - |
| 1777510818 | 11.11° C | 39% | 1014.4 hPa | 0 mm | - | 5 W/m² | - |
| 1777510217 | 11.11° C | 38% | 1014.4 hPa | 0 mm | - | 10 W/m² | - |
| 1777509618 | 11.67° C | 38% | 1014.2 hPa | 0 mm | - | 15 W/m² | - |
| 1777509016 | 11.67° C | 36% | 1014.2 hPa | 0 mm | - | 21 W/m² | - |
| 1777508415 | 11.67° C | 36% | 1014.4 hPa | 0 mm | - | 26 W/m² | - |
| 1777507817 | 11.67° C | 35% | 1014.4 hPa | 0 mm | - | 30 W/m² | - |
| 1777507215 | 12.22° C | 34% | 1014.4 hPa | 0 mm | - | 63 W/m² | - |
| 1777506617 | 12.22° C | 34% | 1014.3 hPa | 0 mm | - | 56 W/m² | - |
| 1777506016 | 12.22° C | 34% | 1014.4 hPa | 0 mm | - | 67 W/m² | - |
| 1777505418 | 12.78° C | 33% | 1014.4 hPa | 0 mm | - | 66 W/m² | - |
| 1777504816 | 12.78° C | 34% | 1014.4 hPa | 0 mm | - | 114 W/m² | - |
| 1777504218 | 12.78° C | 33% | 1014.4 hPa | 0 mm | - | 108 W/m² | - |
| 1777503617 | 12.78° C | 33% | 1014.4 hPa | 0 mm | - | 105 W/m² | - |
| 1777503015 | 12.78° C | 32% | 1014.4 hPa | 0 mm | - | 101 W/m² | - |
| 1777502417 | 12.78° C | 33% | 1014.4 hPa | 0 mm | - | 103 W/m² | - |
| 1777501815 | 12.78° C | 31% | 1014.6 hPa | 0 mm | - | 127 W/m² | - |
* Rain latest hour (hover to see other rain measurements)
** Current wind speed in m/s (hover to see current wind gust speed)